Location: Unspecified
(0.0000°N, 0.0000°E)
Time: 04:09:21
(UTC+00:00)

deb NOAA 5 - Pass Details

Date: 22 February 2026
Orbit: 749 x 1047 km, 102.9° (Epoch: 11 March)

Event Time Altitude Azimuth Distance (km) Brightness Sun altitude
Rises 05:08:18 0° 130° (SE) 3,459 ? -16.0°
Reaches altitude 10° 05:11:27 10° 111° (ESE) 2,576 ? -15.3°
Maximum altitude 05:15:09 18° 71° (ENE) 2,134 ? -14.4°
Drops below altitude 10° 05:18:59 10° 31° (NNE) 2,701 ? -13.4°
Sets 05:22:21 0° 13° (NNE) 3,697 ? -12.6°
